Regional Weather Roundup
Issued by NWS

Home | Current Version | Previous Version | Text Only | Print | Product List | Glossary Off
Versions: 1 2 3 4 5 6 7 8 9 10 11 12 13 14 15 16 17 18 19 20 21 22 23 24 25 26 27

000
ASUS45 KSLC 291210
RWRUT

UTAH REGIONAL WEATHER ROUNDUP
NATIONAL WEATHER SERVICE SALT LAKE CITY UT
600 AM MDT FRI JUL 29 2016

UTZ001>011-023>025-291300-

NORTHERN UTAH

CITY           SKY/WX    TMP DP  RH WIND       PRES   REMARKS
BRIGHAM CITY     N/A     62  45  53 CALM      30.04R
HILL AFB       CLEAR     68  37  31 E18       30.07R
LOGAN          CLEAR     57  44  62 CALM      30.07R
OGDEN          CLEAR     69  38  32 S8        30.04R
PROVO AIRPORT  CLEAR     66  39  37 SE3       30.08S
SALT LAKE CITY PTCLDY    73  46  38 SE8       30.03R
VERNAL         CLEAR     59  34  39 W7        30.14R
WENDOVER       CLEAR     75  39  27 CALM      30.06R
HEBER CITY     CLEAR     52  41  66 CALM      30.18R
WEST JORDAN    CLEAR     70  36  28 SW8       30.07

$$

UTZ012>022-026-027-291300-

SOUTHERN/CENTRAL UTAH

CITY           SKY/WX    TMP DP  RH WIND       PRES   REMARKS
BLANDING       PTCLDY    68  33  27 N10       30.23R
BRYCE CANYON   PTCLDY    49  36  61 W6        30.33S
CEDAR CITY     PTCLDY    73  37  27 SE9       30.15S
DELTA          PTCLDY    70  30  23 SE3       30.07R
MILFORD        MOCLDY    70  40  33 S9        30.08S
MOAB/CYNLANDS  PTCLDY    68  22  17 CALM      30.02R
PRICE          CLEAR     69  30  23 NE8       30.16R
ST GEORGE      SUNNY     82  43  24 E6        29.94R

$$

REGIONAL REPORTS     COLORADO/ARIZONA

CITY           SKY/WX    TMP DP  RH WIND       PRES   REMARKS
CRAIG, CO      CLOUDY    45  38  76 CALM      30.25R
GRAND JUNCTION CLEAR     69  34  27 SE3       30.07R
RIFLE          CLEAR     55  33  43 CALM      30.18R
MONTROSE       CLOUDY    59  37  44 SE8       30.19R
CORTEZ         CLOUDY    56  40  55 CALM      30.18R
PAGE, AZ       CLEAR     79  40  24 CALM      30.01R
GRAND CANYON   HAZE      54  47  77 CALM      30.25S VSB 3/4
KINGMAN        PTCLDY    79  45  29 SE5       29.97R
FLAGSTAFF      CLOUDY    64  43  46 SW9       30.27R

$$

REGIONAL REPORTS    NEVADA/IDAHO/WYOMING

CITY           SKY/WX    TMP DP  RH WIND       PRES   REMARKS
LAS VEGAS, NV  MOCLDY    94  48  20 S3        29.80R HX  90
ELY            MOCLDY    60  35  39 CALM      30.21F
ELKO           CLEAR     60  36  40 CALM      30.13R
POCATELLO, ID  CLEAR     61  34  36 SW12      30.07R
BURLEY         CLEAR     59  45  59 S3        30.05R
EVANSTON, WY   CLOUDY    59  31  34 SE10      30.28S
ROCK SPRINGS   CLEAR     56  45  66 E7        30.28R
KEMMERER         N/A     52  37  58 N10       30.31S

$$




USA.gov is the U.S. government's official web portal to all federal, state and local government web resources and services.